Zurück zum Katalog

STARLINK-33606

AktivKommunikationVLEO
NORAD 63421·PAYLOAD·🇺🇸 United States

Gestartet Mar 31, 2025 von Cape Canaveral Space Force Station

Loading…

Nächste Überflüge (nächste 24 Stunden)

TLE

AktuellSource: CelesTrak SupGP

Epoche: Sep 15, 2026, 03:04 UTC

1 63421C 25065Y   26258.12826389  .00047010  00000+0  17027-2 0  2584
2 63421  43.0025 117.1254 0001527 275.7431  48.0490 15.27554387    10

Verfolge STARLINK-33606 in Echtzeit mit AllMySat

Download on the App Store